{"data":{"norad_id":61921,"intl_designator":"2024-207K","name":"STARLINK-32605","alt_names":[],"object_type":"PAYLOAD","status":"ACTIVE","operator":null,"country":"US","launch_date":"2024-11-11","launch_site_code":"AFETR","launch_vehicle":null,"mission":null,"orbit_class":"UNKNOWN","rcs_meters":null,"size_class":null,"mass_kg":null,"dimensions":null,"purposes":["comms"],"wikipedia_slug":null,"has_3d_model":false,"image_url":null,"decayed_at":null,"tle_current":{"epoch":"2026-09-21T06:09:53.157600Z","epoch_age_seconds":120253,"freshness":"FRESH","line1":"1 61921U 24207K   26264.25686525  .00008291  00000+0  31046-3 0  9999","line2":"2 61921  42.9994 257.0990 0003062 275.0959  84.9543 15.27582654104630","mean_motion":15.27582654,"eccentricity":0.0003062,"inclination_deg":42.9994,"raan_deg":257.099,"arg_perigee_deg":275.0959,"mean_anomaly_deg":84.9543,"bstar":0.00031046,"rev_number":10463,"period_min":94.266584935966,"perigee_km":480.94025627116,"apogee_km":485.14204176962,"semimajor_km":6861.1781490204,"source":"CELESTRAK","updated_at":"2026-09-22T09:00:49.450302Z"}}}